Weather in Vladimirovka

Russia / Tyva Republic     50°59′54″N   95°18′27″E
temp.,
°C
wind,
m/s
gust,
m/s
humid.,
%
clouds,
%
prec.,
mm/h
press.,
hPa
HPBL,
m
31 july, sat
sat3101:00+13se1143100 0.0 100811
04:00+12w1149100 0.0 101113
07:00+14nw3771100 0.0 1013698
10:00+14nw4577100 0.1 1015842
13:00+14wnw3378100 0.2 1015826
16:00+15nw227198 0.2 1014867
19:00+13wnw2586100 0.4 1015265
22:00+12ssw1192100 0.1 101642
1 august, sun
sun101:00+11wsw1191100 0.1 101450
04:00+11sw1192100 0.1 101341
07:00+11wsw1294100 0.4 101383
10:00+12w1488100 0.1 1012393
13:00+12s1291100 0.8 101099
16:00+13se1292100 0.9 1009107
19:00+13ese2393100 1.3 100971
22:00+10se1195100 0.6 101011
2 august, mon
mon201:00+9sse1195100 0.6 101012
04:00+9sse1194100 0.0 101013
07:00+11s118899 0.0 101060
10:00+18nnw245014 0.0 10091047
13:00+23nw463053 0.0 10072447
16:00+24nnw562857 0.0 10062873
19:00+22nw46344 0.0 10071018
22:00+12s11620 0.0 101015
3 august, tue
tue301:00+10se22725 0.0 101118
04:00+9ese11763 0.0 101116
07:00+14e12575 0.0 1011138
10:00+24nne11308 0.0 10081058
13:00+27nnw242413 0.0 10052535
16:00+28wnw232433 0.0 10032984
19:00+25ssw23323 0.0 100280
22:00+15sse115261 0.0 100418
4 august, wed
wed401:00+14n388399 0.0 1009452
04:00+12s119226 0.1 100945
07:00+14sse008469 0.1 1009177
10:00+20nnw225044 0.0 10071082
13:00+24nw333475 0.0 10042033
16:00+26nnw332910 0.0 10022285
19:00+21nnw374597 0.3 1003440
22:00+12sse229761 5.5 100764